Vorticity
nan nan nan nan nan nan nan nan nan nan nan nan nan nan nan nan nan nan nan nan nan nan nan nan nan nan nan nan nan nan nan nan nan nan nan nan nan nan nan nan nan nan nan nan nan nan nan nan nan nan nan nan nan nan nan nan nan nan nan nan nan nan nan nan nan nan nan nan nan nan nan nan nan nan nan nan nan nan nan nan nan nan nan nan nan nan nan nan nan nan nan nan nan nan nan nan nan nan nan nan nan nan nan
nan 7 6 4 2 4 8 8 6 3 4 7 6 6 5 5 4 3 3 3 3 3 3 3 3 4 5 6 6 6 5 5 5 5 5 5 6 6 6 5 4 3 2 1 1 1 -0 1 4 5 6 5 5 5 5 4 5 6 7 6 7 10 18 15 8 4 3 3 3 4 5 5 5 5 6 6 6 5 6 6 5 5 5 5 5 5 5 5 5 5 5 4 4 5 5 5 5 5 5 5 5 5 nan
nan 7 6 4 2 5 8 8 6 4 4 6 6 5 5 5 4 3 2 2 3 3 3 3 3 3 5 6 7 7 6 5 5 5 5 5 6 6 6 5 4 3 2 1 1 0 -2 1 3 5 5 5 6 6 6 5 5 6 6 6 8 12 19 14 8 5 4 3 3 4 5 5 5 5 6 6 6 5 5 5 5 5 5 5 5 5 5 5 5 5 5 5 4 4 4 5 5 5 5 5 5 5 nan
nan 6 5 4 3 6 8 8 6 4 4 5 5 5 5 5 4 3 2 2 3 3 3 2 3 3 5 7 7 7 7 6 5 5 6 6 6 6 5 5 4 3 2 2 1 -2 -4 0 3 4 5 5 5 5 6 6 6 6 6 7 10 17 20 12 7 6 4 3 3 4 4 4 4 5 5 6 5 5 5 5 5 5 5 5 4 5 5 6 6 5 5 5 5 4 4 4 4 5 5 5 5 6 nan
nan 5 4 4 5 8 9 8 6 5 4 4 4 5 5 5 5 3 2 2 2 3 3 2 2 3 5 7 8 8 7 7 6 6 6 6 5 6 5 4 3 3 2 1 -0 -2 0 2 2 3 5 5 5 5 5 6 6 6 6 8 15 21 18 9 6 5 4 4 4 4 5 5 4 5 6 5 5 5 5 5 5 5 5 4 4 5 5 6 6 6 6 5 5 5 5 5 5 5 5 5 6 6 nan
nan 4 3 4 6 8 10 8 6 5 4 4 3 4 5 5 5 4 3 2 2 3 2 2 2 3 5 7 8 8 8 7 7 6 6 6 5 5 5 4 3 3 2 1 0 0 1 1 3 5 5 5 5 5 5 6 6 7 7 10 18 22 13 7 5 5 3 4 6 7 9 8 7 7 6 5 4 5 5 5 5 5 5 4 4 4 5 6 7 7 6 5 5 5 5 5 5 5 5 5 6 6 nan
nan 3 1 3 6 9 10 9 7 5 4 3 3 3 4 5 5 4 3 3 3 3 3 2 2 3 5 7 8 9 9 8 7 6 5 5 5 5 5 4 3 3 2 1 1 0 1 3 5 6 5 5 5 5 6 7 7 7 7 11 18 17 9 6 5 4 3 4 8 10 12 11 8 7 6 5 4 4 5 5 5 5 5 4 4 4 5 6 6 7 6 6 5 6 5 5 5 5 5 5 6 6 nan
nan 2 1 2 6 8 9 9 8 7 5 3 3 3 4 5 5 4 3 3 3 3 3 3 3 3 5 7 9 9 9 8 7 6 5 5 5 5 4 4 3 3 2 2 2 2 2 2 5 5 4 5 6 6 6 7 7 6 6 10 14 11 7 6 5 4 4 5 7 8 9 9 8 6 6 5 5 5 5 5 6 6 5 5 4 4 5 6 6 6 5 5 5 5 5 5 5 5 5 5 5 5 nan
nan 2 1 2 5 7 8 8 8 8 6 4 3 3 4 5 5 5 4 3 3 4 3 3 3 4 5 7 9 10 10 9 7 6 5 5 5 5 4 4 3 3 2 2 2 2 0 0 3 4 4 5 6 6 6 6 6 6 6 10 14 14 10 6 6 5 4 5 5 5 6 6 6 5 5 5 5 5 5 5 6 6 5 5 4 4 5 6 6 5 5 5 5 5 5 5 5 5 5 5 5 5 nan
nan 2 2 3 5 6 6 6 8 9 8 5 4 3 4 5 5 5 4 4 4 4 4 3 3 4 5 7 9 10 10 9 7 6 5 5 4 4 4 3 3 3 2 2 3 2 -1 -0 4 5 5 6 6 6 6 6 7 7 9 15 20 17 9 6 6 5 5 4 4 4 4 5 5 4 4 4 5 5 5 5 6 6 5 5 5 5 5 5 5 5 5 5 5 5 5 5 5 5 5 5 5 5 nan
nan 4 3 3 5 7 7 5 6 8 8 6 4 4 4 5 5 5 4 4 4 4 4 4 4 4 5 7 8 9 10 9 7 6 5 4 4 4 4 3 3 3 3 3 3 2 -1 -0 4 5 6 7 6 6 5 6 7 7 12 23 21 14 8 6 6 5 6 5 5 4 4 5 5 5 5 5 5 5 5 6 6 6 5 5 5 5 5 5 5 5 5 5 5 5 5 5 5 5 5 5 5 5 nan
nan 6 3 2 4 7 7 6 6 6 6 6 5 4 4 5 5 5 5 4 4 4 4 4 4 4 5 7 8 9 9 9 7 6 5 4 4 4 4 3 3 3 3 4 3 0 -3 -0 4 5 6 6 6 5 6 6 7 6 15 26 20 12 8 6 6 6 6 6 5 5 5 5 6 6 6 6 6 6 6 6 6 6 5 5 5 5 5 5 5 5 5 5 5 6 6 6 6 5 5 5 5 5 nan
nan 6 1 1 3 7 8 8 7 6 5 5 5 5 5 5 5 5 5 4 4 4 4 4 4 4 5 6 7 8 9 8 7 6 5 4 4 4 4 3 3 3 4 3 -1 -5 -4 2 5 6 6 6 6 6 7 6 6 7 18 25 15 10 7 6 6 6 6 6 6 5 5 6 6 6 6 6 6 6 6 6 6 6 5 5 5 5 5 5 5 5 5 5 5 5 6 6 6 6 5 5 5 5 nan
nan 4 0 0 3 5 7 8 8 7 5 4 5 5 5 5 6 6 5 5 5 4 4 4 4 5 5 6 7 8 9 8 8 6 5 4 4 4 3 3 4 4 3 -2 -5 -3 2 6 6 5 5 6 6 7 7 6 6 11 20 19 12 8 6 6 6 6 6 6 5 5 5 6 6 6 6 6 6 6 6 6 6 5 5 5 5 5 5 5 5 5 5 5 5 5 6 6 6 5 5 5 5 5 nan
nan 4 3 3 4 4 6 7 8 8 6 4 5 5 6 6 6 6 6 5 5 4 4 4 4 5 5 6 8 8 8 9 8 7 6 5 4 4 3 4 4 3 -2 -6 -2 4 7 7 6 5 5 6 6 6 6 6 7 14 20 14 10 8 6 6 6 5 5 5 5 5 6 6 6 6 6 6 6 6 5 5 5 5 5 5 5 5 4 4 4 4 4 4 5 5 5 5 5 5 5 5 5 4 nan
nan 7 7 7 6 5 5 6 7 8 6 5 5 6 6 6 7 7 6 6 5 5 4 4 4 4 5 6 7 7 6 9 9 8 7 6 5 4 4 4 2 -1 -5 -2 4 7 7 6 6 6 6 6 6 6 6 6 9 17 19 11 9 8 7 6 6 5 5 5 5 5 6 6 6 6 6 6 5 5 5 5 5 5 5 5 4 4 4 4 4 4 4 4 4 4 5 5 5 5 5 5 4 4 nan
nan 10 9 8 7 7 7 6 6 6 5 5 5 6 6 7 7 7 7 6 6 5 5 4 4 4 5 5 4 1 4 10 10 10 9 7 6 5 5 2 -1 -5 -3 4 6 7 7 6 5 5 6 6 6 6 6 7 12 19 17 9 8 7 7 7 6 6 5 5 5 5 6 6 6 5 5 5 5 5 5 5 5 5 5 4 4 4 4 4 4 4 4 4 4 4 4 4 4 4 5 4 4 4 nan
nan 10 9 8 8 9 8 7 7 6 5 4 5 6 6 6 7 7 8 7 6 6 5 5 4 5 5 2 -1 -2 4 10 11 12 12 10 7 5 2 -1 -3 -3 2 6 7 7 7 6 6 6 6 5 5 6 6 8 15 19 15 8 7 6 7 7 6 6 6 6 6 5 5 5 5 5 5 5 5 5 5 5 5 5 4 4 3 3 3 3 3 4 4 4 4 4 4 4 4 4 4 4 4 4 nan
nan 10 8 7 8 9 9 8 8 7 5 4 6 6 6 6 6 6 7 8 7 7 6 5 5 4 3 -2 -5 -1 6 9 10 11 13 12 8 4 -2 -4 -2 1 5 7 7 7 6 6 6 6 6 5 5 5 7 10 15 18 14 8 6 6 6 6 6 6 6 6 6 6 6 5 5 5 5 5 5 5 5 5 5 4 4 4 3 3 3 3 3 4 4 4 4 4 4 4 4 4 4 4 4 4 nan
nan 9 7 6 8 8 8 8 8 7 5 5 6 7 7 6 6 6 7 8 7 7 7 5 2 1 -2 -6 -3 3 7 8 9 9 10 10 7 3 -0 1 3 5 7 7 7 6 6 6 6 6 6 6 5 5 6 10 15 16 12 6 5 6 6 6 6 6 6 6 6 6 6 5 5 5 5 5 5 5 5 4 4 4 4 3 3 3 3 3 4 4 4 4 4 4 4 4 3 3 3 3 3 3 nan
nan 8 8 8 8 7 6 7 7 7 8 6 3 4 7 7 7 8 7 6 7 8 6 1 -3 -3 -3 -1 3 6 7 7 8 9 9 9 7 5 4 5 6 6 7 7 6 6 6 6 6 6 6 5 6 6 6 8 12 14 9 5 5 5 6 6 6 5 5 5 5 5 6 6 6 5 5 5 5 5 4 4 4 4 3 3 3 3 3 4 4 4 4 4 4 4 4 4 4 3 3 3 3 2 nan
nan 7 8 8 7 6 5 6 7 8 12 8 -1 2 6 8 9 9 6 5 8 9 4 -2 -3 0 3 5 5 5 6 6 7 7 8 9 8 7 6 6 6 7 7 7 6 6 6 6 7 7 6 5 5 6 7 7 9 11 8 6 5 5 5 5 5 5 5 5 5 5 5 5 6 6 5 5 5 4 4 4 4 3 3 3 3 3 4 4 4 4 4 4 4 4 4 4 4 4 3 3 2 2 nan
nan 7 7 7 6 6 5 6 7 9 14 9 -2 1 6 7 8 8 6 6 8 8 4 0 1 4 6 6 6 5 6 8 8 7 7 7 7 7 7 6 7 7 7 6 6 6 6 7 7 7 7 6 6 6 7 8 9 9 9 8 7 6 5 5 5 5 5 5 5 5 5 5 5 5 5 5 5 4 4 4 3 3 3 3 3 3 4 4 4 4 4 4 4 4 4 4 4 4 4 3 3 2 nan
nan 6 6 7 8 7 6 5 6 8 12 9 1 2 6 7 8 7 6 6 8 8 5 2 3 5 7 8 7 7 8 10 9 7 7 7 7 7 7 7 6 6 7 7 6 6 6 7 7 7 7 6 6 6 7 9 8 7 8 8 9 9 7 6 5 5 5 5 5 5 5 5 5 5 5 5 4 4 4 3 3 3 3 3 3 3 4 4 4 4 5 4 4 4 4 4 4 4 4 4 3 3 nan
nan 5 4 6 8 10 7 5 5 6 10 8 4 5 6 6 7 6 6 6 7 7 5 4 4 6 9 9 8 8 9 10 10 9 8 8 7 6 7 7 6 6 7 6 5 5 6 7 7 8 7 6 6 7 8 9 8 7 6 7 8 9 10 9 6 5 4 4 5 5 5 4 4 4 4 4 4 4 3 3 3 3 3 4 4 4 4 4 4 4 5 5 4 4 4 3 4 4 4 4 4 3 nan
nan 6 5 5 7 10 9 7 7 7 7 7 7 7 7 5 6 6 6 6 7 6 6 6 6 7 9 9 8 8 8 9 10 10 10 9 8 6 6 6 5 6 6 6 5 6 6 7 7 7 7 7 7 7 9 9 8 7 6 6 7 8 9 10 8 7 5 4 4 4 4 4 4 4 4 4 4 3 3 3 3 3 4 4 4 4 4 4 4 4 5 5 5 4 3 3 3 3 3 3 4 4 nan
nan 6 7 5 6 8 9 8 7 7 7 7 8 8 6 5 5 6 6 6 7 7 7 7 6 5 6 7 7 6 6 8 9 10 10 9 9 8 6 5 5 6 6 5 5 6 6 7 7 7 7 7 7 7 9 10 8 7 7 8 8 8 7 8 8 8 5 3 3 4 4 4 4 4 4 4 4 3 3 3 3 4 4 4 4 4 4 4 4 5 5 5 5 4 3 3 3 2 2 3 3 3 nan
nan 7 8 6 5 7 8 8 7 7 7 8 9 9 7 5 5 6 6 6 7 8 7 5 4 3 4 5 7 6 6 7 9 10 10 9 9 9 8 6 5 5 5 5 5 5 6 7 7 7 7 6 7 7 9 11 10 7 7 9 10 10 9 7 5 7 5 5 5 6 4 4 5 5 4 4 4 3 3 4 4 4 4 4 4 4 4 3 4 5 5 5 5 4 4 3 3 2 2 2 2 3 nan
nan 7 7 7 6 6 7 8 7 6 7 7 8 10 8 6 6 7 6 6 7 8 7 6 5 5 5 5 6 6 6 6 8 8 8 9 10 11 10 7 5 5 5 5 6 5 5 6 7 7 7 7 6 6 8 10 11 9 7 9 10 12 12 9 7 6 3 4 6 6 6 6 6 6 5 4 4 3 4 4 4 4 4 4 4 4 4 4 4 4 5 5 4 4 4 4 3 3 2 3 3 3 nan
nan 8 8 7 7 6 7 8 7 5 7 8 7 8 8 7 7 8 7 6 7 8 8 7 6 6 6 6 6 6 6 6 7 7 7 8 10 12 11 9 7 6 5 5 5 6 7 6 6 6 7 7 7 6 7 9 11 10 8 8 9 11 12 12 11 9 4 4 6 7 7 7 7 7 6 5 4 3 4 4 4 4 4 4 4 4 4 4 4 5 5 5 4 4 4 4 4 4 4 4 4 4 nan
nan 7 8 8 7 6 8 9 7 5 7 8 7 7 8 7 7 8 8 8 8 8 7 7 6 6 6 5 6 6 7 7 6 7 7 8 9 10 11 11 9 7 4 4 5 6 8 8 7 6 6 7 7 7 7 9 11 11 9 8 9 9 10 11 13 14 12 8 6 5 6 6 5 4 5 5 4 3 4 4 4 4 4 4 5 4 4 4 5 5 6 6 5 4 4 4 4 4 5 5 5 6 nan
nan 7 8 8 8 5 8 10 7 5 7 8 7 7 8 7 7 7 9 9 9 8 7 7 7 7 7 5 6 7 8 7 6 7 7 7 8 9 11 12 10 7 5 5 5 6 7 9 8 6 6 7 6 6 7 8 10 11 11 9 9 8 8 10 12 15 17 13 9 7 6 4 4 3 2 2 2 3 4 5 5 5 4 5 5 5 5 5 5 6 7 7 6 5 5 5 4 4 5 6 7 8 nan
nan 8 8 8 8 4 6 10 7 5 6 8 8 7 8 7 6 7 9 9 10 10 9 9 9 9 9 8 7 8 9 8 7 8 7 7 7 8 10 11 10 8 8 7 6 6 6 8 8 7 7 7 6 6 6 7 8 10 12 11 10 8 7 7 8 11 16 16 14 11 7 4 4 3 2 2 2 2 3 5 5 5 5 5 5 5 5 5 6 7 7 7 6 6 6 5 5 5 5 6 7 8 nan
nan 8 8 8 7 4 5 9 8 6 6 8 8 8 9 9 7 8 9 9 11 11 11 11 11 11 10 10 9 8 8 8 9 9 7 7 8 9 9 8 8 9 10 9 7 6 7 8 8 7 7 7 6 6 6 7 7 8 10 11 10 9 7 6 6 7 12 16 17 16 10 6 5 5 4 4 3 3 3 4 5 5 5 5 5 5 5 6 7 8 8 7 7 7 7 6 5 5 5 6 7 8 nan
nan 7 8 8 7 6 5 7 7 7 7 8 8 9 10 9 7 7 7 7 8 8 9 10 10 10 10 10 8 7 7 8 9 9 9 8 8 9 9 7 7 9 10 9 8 7 7 7 7 8 7 7 6 5 5 6 7 7 9 11 10 9 9 7 7 6 8 11 15 16 15 11 8 7 5 5 6 5 4 5 5 5 5 6 6 6 5 6 7 8 9 8 7 7 7 6 6 5 6 7 7 7 nan
nan 4 6 7 7 8 6 6 7 9 8 6 7 9 9 7 6 6 6 5 5 5 6 8 9 8 8 7 7 6 5 6 7 7 7 7 8 9 9 8 7 8 9 9 9 9 9 7 7 8 8 7 6 6 5 6 7 7 8 10 10 10 11 11 10 8 7 8 11 13 16 15 12 9 7 6 6 6 5 5 5 5 6 6 6 6 6 6 7 8 8 8 7 7 8 7 6 6 6 7 7 6 nan
nan 4 4 6 8 8 7 6 8 11 9 6 6 8 7 6 6 6 7 6 6 4 4 6 8 7 6 6 6 5 4 5 6 5 5 5 7 8 9 9 9 8 8 9 9 11 10 8 7 7 8 7 7 7 6 6 7 7 7 8 9 10 10 11 11 11 10 8 8 9 13 16 15 12 9 7 7 6 6 6 6 6 6 6 6 6 6 5 6 6 7 8 7 7 8 7 7 6 7 8 7 6 nan
nan 9 4 4 7 9 6 6 8 11 9 7 6 6 6 5 6 7 8 7 6 4 4 6 7 7 6 6 7 7 5 5 6 5 5 4 5 6 8 9 9 8 7 9 10 11 10 9 7 7 7 7 7 7 7 7 7 6 6 7 8 8 8 9 9 10 11 11 9 8 9 12 14 14 12 9 8 7 7 7 6 6 6 6 5 5 5 5 5 5 6 6 7 7 7 7 7 7 8 8 7 6 nan
nan 10 7 5 7 8 6 6 9 9 8 8 7 8 7 5 6 7 7 8 7 6 5 6 6 6 6 7 8 10 8 6 6 6 6 5 4 4 7 9 9 8 8 9 9 10 10 9 9 8 8 7 8 7 7 7 7 7 6 7 7 7 7 8 8 8 10 11 12 11 9 8 10 12 13 11 10 9 8 8 8 8 7 6 5 5 5 4 4 4 5 6 6 7 6 6 7 7 8 7 7 6 nan
nan 8 10 9 8 8 8 8 8 8 7 7 8 9 8 6 6 6 6 7 7 7 7 6 5 5 6 7 7 9 9 8 8 8 7 7 5 4 6 8 9 9 9 9 8 8 9 10 10 9 8 7 7 8 8 8 8 7 6 6 7 7 7 7 7 7 7 9 11 13 12 9 8 9 11 11 11 10 10 9 9 9 9 7 6 5 5 5 4 4 5 5 6 6 5 6 6 7 8 8 7 7 nan
nan 8 9 10 8 8 10 9 7 6 6 7 8 9 8 7 7 6 6 6 6 8 9 7 6 6 6 6 7 6 7 8 9 8 8 7 6 5 6 7 8 9 9 8 7 7 9 10 10 9 8 8 8 8 8 8 7 7 6 6 6 6 6 7 7 6 6 7 9 11 14 11 8 8 8 9 10 10 10 10 10 11 11 10 8 6 5 5 5 5 5 5 5 5 5 5 5 6 7 8 9 8 nan
nan 10 9 9 9 9 11 10 7 5 6 7 8 9 8 7 7 7 7 7 6 8 9 7 6 7 8 7 7 7 6 6 8 9 8 7 6 5 5 6 7 9 9 8 6 7 9 9 9 8 8 9 9 8 8 8 7 6 7 7 7 7 6 6 6 6 6 7 7 9 12 14 11 9 8 8 8 9 9 9 9 10 11 12 10 8 6 6 5 5 5 5 5 5 5 5 5 5 6 8 9 10 nan
nan 8 9 10 11 11 12 10 7 5 5 6 8 9 8 7 7 6 8 8 7 7 8 7 6 7 9 9 8 8 7 5 6 8 8 8 7 6 6 6 7 8 9 8 7 7 8 9 9 9 8 8 9 8 7 7 7 7 7 8 9 9 7 6 5 6 7 6 7 7 10 14 14 12 9 9 8 8 8 8 8 9 9 10 10 9 7 6 6 6 5 5 5 5 5 5 5 5 5 7 9 10 nan
nan 1 5 9 11 12 12 10 7 5 4 6 8 9 8 7 7 6 7 9 8 8 7 6 7 7 8 9 9 8 7 7 6 7 8 8 8 7 6 6 7 8 9 8 8 8 8 10 10 9 8 8 10 9 8 8 7 6 6 8 10 11 9 7 6 6 6 6 6 7 7 10 13 15 13 11 11 10 9 9 8 8 8 9 9 9 8 7 6 6 5 5 5 5 5 5 5 4 5 6 8 10 nan
nan -1 -1 4 9 12 11 8 6 5 4 6 8 9 9 7 7 5 7 8 8 8 6 5 6 7 7 8 8 9 8 9 9 10 9 9 8 8 7 7 8 8 9 8 8 8 9 9 10 9 8 9 10 10 11 10 8 6 6 7 9 11 11 8 7 6 6 6 6 7 8 7 9 12 14 14 14 13 13 11 9 8 8 9 10 10 9 9 8 7 6 6 5 5 5 5 5 5 5 6 8 9 nan
nan 5 2 3 6 10 11 7 5 5 5 6 7 9 9 8 7 7 7 8 8 8 6 5 5 6 7 6 7 9 10 10 12 12 11 9 9 8 7 7 9 10 9 8 8 8 9 9 9 9 8 8 9 9 11 12 10 8 7 7 8 9 9 9 8 7 6 6 7 8 9 8 7 7 10 12 13 14 15 13 11 10 9 10 10 11 10 10 10 9 8 6 5 5 5 5 5 5 5 6 7 9 nan
nan 6 9 7 5 6 9 6 4 4 6 6 7 8 8 7 7 8 8 8 8 8 7 6 5 5 7 6 6 8 10 10 9 9 9 9 9 9 8 7 8 9 10 10 9 9 9 9 8 8 9 8 8 9 9 11 10 9 9 9 8 9 8 8 9 8 6 6 8 8 8 9 8 6 7 9 9 10 12 14 14 12 11 11 11 11 10 11 11 11 10 8 6 5 5 5 5 5 5 6 7 9 nan
nan 2 9 10 7 6 8 6 2 4 6 6 7 8 7 6 7 8 7 6 8 8 8 8 7 6 7 6 5 6 9 9 8 7 6 6 6 7 8 7 7 7 9 10 11 11 9 8 7 7 8 9 9 9 9 9 9 9 9 10 10 10 8 7 8 7 7 7 9 8 7 7 8 7 7 8 8 9 10 12 15 15 14 12 11 11 10 10 11 12 12 9 7 6 5 5 5 5 5 6 7 9 nan
nan -1 6 11 9 7 10 10 5 4 5 6 7 10 10 8 7 6 6 5 6 7 8 9 10 9 6 5 5 6 7 8 8 8 6 4 3 3 5 7 7 7 7 9 11 12 10 8 7 7 7 8 8 9 9 9 9 8 9 10 10 12 11 8 7 7 8 9 9 8 7 6 7 7 7 7 8 8 8 10 12 14 16 15 14 13 13 10 11 12 13 11 9 7 6 6 5 5 6 6 7 8 nan
nan -1 4 10 10 7 11 14 7 5 5 5 8 11 13 10 8 9 9 6 3 4 6 8 11 12 8 4 5 7 8 8 8 5 4 5 4 3 5 7 8 8 6 7 9 11 12 10 9 8 7 7 7 8 9 9 9 8 9 9 9 11 13 11 10 8 10 10 9 8 7 5 5 6 7 7 8 8 8 8 9 11 13 15 16 16 17 16 13 12 13 13 12 11 10 8 7 6 6 7 7 7 nan
nan 1 5 10 11 6 8 12 6 5 6 7 8 10 14 12 8 8 11 9 4 2 2 5 8 12 11 7 7 9 10 10 7 0 2 7 7 7 8 9 8 7 7 7 8 9 11 9 10 10 8 7 7 8 9 9 9 8 8 9 9 10 11 11 11 11 11 11 9 8 7 5 4 5 7 7 7 7 7 7 8 9 10 11 13 14 14 16 17 15 13 13 13 13 13 12 9 8 7 7 7 7 nan
nan 2 8 13 13 9 8 7 3 1 3 6 8 9 13 12 7 5 10 12 8 4 1 2 4 8 10 9 9 10 12 11 8 3 3 7 8 7 10 12 9 9 11 9 7 6 6 7 9 12 11 7 6 7 8 9 9 9 8 8 8 9 9 9 10 11 11 11 10 10 9 7 6 5 7 7 6 6 5 6 7 7 9 9 10 10 11 11 12 14 14 13 12 11 13 13 12 10 8 7 7 7 nan
nan -3 2 11 15 13 11 10 8 2 -1 3 7 7 10 11 7 5 7 10 9 6 5 4 3 4 7 8 8 9 11 11 9 5 3 6 6 5 8 11 10 11 13 13 9 7 6 8 9 11 14 12 9 7 7 7 8 9 9 8 8 8 9 9 10 11 10 10 11 11 10 9 9 8 8 8 7 6 6 5 5 6 8 9 9 9 10 11 12 11 12 13 13 11 11 12 13 12 10 8 8 7 nan
nan -7 -9 -1 8 13 15 17 15 10 -1 -0 5 8 11 11 7 6 6 7 7 7 7 7 5 3 5 6 6 5 9 11 10 6 4 5 5 3 3 6 9 10 10 12 10 11 12 14 11 11 14 17 14 10 8 7 6 8 9 8 7 7 8 9 9 10 9 10 11 12 11 10 10 11 10 8 7 7 7 6 5 5 6 7 8 8 9 11 13 12 12 13 12 11 11 11 12 13 13 10 9 7 nan
nan -7 -11 -8 -2 4 14 20 17 15 5 -1 4 8 13 12 8 7 8 9 7 6 5 7 8 3 3 6 6 5 8 11 10 9 5 3 4 2 2 4 5 4 7 11 11 10 12 16 16 13 11 14 14 12 10 10 7 7 8 9 7 6 6 7 8 8 8 9 10 12 12 11 12 12 10 7 7 8 8 8 7 6 6 7 7 8 9 10 11 11 12 14 13 11 11 11 11 11 12 11 9 8 nan
nan -1 -4 -1 -2 -5 2 12 16 19 11 2 4 8 10 10 10 9 9 11 10 7 3 5 8 3 -1 6 8 6 6 10 11 11 8 3 3 0 1 4 3 1 5 9 10 9 9 13 14 12 7 9 12 11 11 13 11 8 8 9 8 6 5 5 6 7 8 8 9 10 11 12 13 13 10 9 9 9 9 8 7 7 6 6 7 8 10 10 9 10 10 13 15 15 12 11 10 10 10 9 8 7 nan
nan 8 4 7 6 -1 -5 1 8 14 13 8 7 7 7 6 7 10 11 10 10 9 4 4 9 8 1 2 7 7 4 7 10 11 10 7 5 2 0 5 8 10 9 9 11 10 10 11 11 8 7 7 12 12 14 16 15 11 8 9 9 8 6 4 5 6 7 7 7 8 10 11 11 11 11 11 11 11 10 8 8 7 7 7 7 7 9 10 8 7 8 9 12 16 15 11 10 10 9 8 7 6 nan
nan 12 10 11 13 9 1 1 6 8 9 9 9 9 9 7 7 9 12 11 9 10 7 3 7 10 7 3 5 8 7 6 7 9 10 9 9 6 2 2 5 11 15 14 14 13 12 9 9 6 7 7 10 11 15 17 16 14 12 11 10 10 9 7 4 4 6 6 6 6 8 9 10 10 11 11 11 12 12 10 8 8 7 7 6 7 9 10 8 6 6 7 8 12 14 12 11 11 10 9 7 6 nan
nan 3 6 9 12 11 6 5 8 10 9 7 8 14 16 12 9 9 11 12 11 12 8 3 5 7 9 7 5 8 10 7 5 6 9 9 11 11 8 1 -0 2 8 12 13 13 11 8 9 8 8 6 6 7 12 16 15 13 13 14 13 13 12 10 7 5 6 6 6 5 5 7 9 10 10 10 10 12 13 12 10 8 6 6 7 8 10 10 9 8 8 8 8 9 11 11 11 11 11 9 8 6 nan
nan -3 -1 4 6 5 3 3 6 9 11 8 8 13 17 14 10 9 10 13 13 12 9 6 4 4 8 9 6 7 10 9 8 6 6 7 11 13 12 7 2 -0 -0 3 7 9 11 12 12 12 9 8 6 6 6 10 13 14 14 14 14 14 12 12 11 8 7 8 8 7 4 4 6 8 8 8 8 9 12 13 11 9 7 6 7 9 10 10 10 11 10 10 11 11 11 11 12 12 11 10 8 7 nan
nan nan nan nan nan nan nan nan nan nan nan nan nan nan nan nan nan nan nan nan nan nan nan nan nan nan nan nan nan nan nan nan nan nan nan nan nan nan nan nan nan nan nan nan nan nan nan nan nan nan nan nan nan nan nan nan nan nan nan nan nan nan nan nan nan nan nan nan nan nan nan nan nan nan nan nan nan nan nan nan nan nan nan nan nan nan nan nan nan nan nan nan nan nan nan nan nan nan nan nan nan nan nan
CAPE
1612 1386 1066 808 839 839 787 758 766 766 807 658 552 552 520 557 557 558 458 338 338 253 196 175 187 187 157 84 39 39 28 26 15 15 15 10 10 7 3 3 3 1 nan nan nan nan nan nan nan nan nan nan nan nan nan nan nan nan nan nan nan nan nan 5 3 3 9 18 36 36 53 47 38 38 42 45 45 51 44 41 41 40 36 34 27 27 26 25 25 25 26 28 31 31 32 25 25 17 15 23 23 24 20
1525 1257 950 744 819 819 766 734 779 779 819 666 561 561 563 604 604 571 440 322 322 235 178 184 172 172 165 112 45 45 16 31 19 19 18 7 7 4 2 1 1 0 nan nan nan nan nan nan nan nan nan nan nan nan nan nan nan nan nan nan nan nan nan 6 1 1 3 10 29 29 55 54 43 43 45 51 51 49 41 39 39 35 31 28 26 26 26 23 22 22 19 20 21 21 21 18 18 16 19 24 24 21 16
1437 1181 915 762 797 797 785 750 797 797 795 679 607 607 575 615 615 550 423 307 307 218 163 168 157 157 172 118 50 50 25 24 22 22 13 6 6 3 2 0 0 nan nan nan nan nan nan nan nan nan nan nan nan nan nan nan nan nan nan nan nan nan nan 8 1 1 nan 4 25 25 49 54 42 42 47 54 54 48 34 30 30 28 24 25 28 28 29 28 25 25 20 18 15 15 15 14 14 17 20 24 24 23 19
1351 1103 923 815 769 769 764 766 814 814 812 695 658 658 622 591 591 531 407 319 319 203 150 154 166 166 134 83 55 55 29 28 25 25 8 5 5 1 1 nan nan nan nan nan nan nan nan nan nan nan nan nan nan nan nan nan nan nan nan nan nan nan 7 8 0 0 nan 0 20 20 51 53 36 36 48 49 49 44 29 24 24 24 23 23 26 26 31 36 34 34 26 20 15 15 15 15 15 18 23 25 25 24 23
1310 1077 896 821 781 781 741 786 833 833 792 716 678 678 603 538 538 513 392 279 279 192 162 140 150 150 98 91 61 61 66 49 29 29 9 3 3 0 nan nan nan nan nan nan nan nan nan nan nan nan nan nan nan nan nan nan nan nan nan nan nan nan 23 10 nan nan nan 0 28 28 72 64 39 39 44 45 45 38 26 23 23 23 21 20 25 25 32 38 36 36 33 24 19 19 21 21 21 24 25 26 26 26 24
1226 962 873 830 754 754 757 765 771 771 771 737 698 698 622 554 554 465 378 293 293 207 153 127 114 114 85 61 69 69 72 54 20 20 6 2 2 nan nan nan nan nan nan nan nan nan nan nan nan nan nan nan nan nan nan nan nan nan nan nan nan 1 26 9 nan nan nan 3 35 35 167 76 42 42 35 35 35 29 24 23 23 21 17 18 23 23 29 35 39 39 39 31 25 25 26 27 27 27 28 26 26 26 23
1201 936 810 802 688 688 695 700 708 708 712 716 681 681 607 539 539 450 392 283 283 200 167 138 100 100 58 37 57 57 79 78 37 37 6 1 1 nan nan nan nan nan nan nan nan nan nan nan nan nan nan nan nan nan nan nan nan nan nan nan nan 15 18 6 nan nan nan 18 97 97 254 82 43 43 26 25 25 23 22 21 21 19 16 17 22 22 26 31 35 35 34 32 31 31 29 28 28 26 25 23 23 20 19
1173 867 747 736 663 663 713 753 723 723 652 694 663 663 590 524 524 437 354 275 275 217 160 131 93 93 52 32 46 46 84 83 41 41 3 0 0 nan nan nan nan nan nan nan nan nan nan nan nan nan nan nan nan nan nan nan nan nan nan nan nan 5 13 3 nan nan 1 30 122 122 174 68 40 40 24 21 21 22 21 21 21 19 19 17 19 19 24 25 27 27 25 25 26 26 26 23 23 21 18 17 17 16 13
1138 886 725 713 679 679 730 815 699 699 594 671 644 644 571 509 509 426 345 292 292 211 175 145 87 87 46 37 38 38 70 88 46 46 4 nan nan nan nan nan nan nan nan nan nan nan nan nan nan nan nan nan nan nan nan nan nan nan nan nan nan 1 9 2 nan nan 4 33 79 79 76 49 37 37 25 22 22 22 22 21 21 20 18 16 19 19 22 20 19 19 17 16 15 15 14 13 13 13 11 9 9 9 8
1069 868 704 695 698 698 787 922 757 757 572 648 620 620 590 494 494 414 363 285 285 227 190 137 97 97 54 31 44 44 75 92 51 51 2 nan nan nan nan nan nan nan nan nan nan nan nan nan nan nan nan nan nan nan nan nan nan nan nan 0 0 13 11 3 1 1 13 39 58 58 49 40 31 31 24 24 24 18 19 19 19 18 15 13 15 15 18 15 13 13 9 8 6 6 5 5 5 5 5 5 5 3 3
966 810 727 718 682 682 766 899 816 816 589 590 596 596 570 478 478 400 328 277 277 221 184 150 107 107 46 36 50 50 65 79 41 41 nan nan nan nan nan nan nan nan nan nan nan nan nan nan nan nan nan nan nan nan nan nan nan nan nan 9 9 27 16 7 10 10 25 44 47 47 40 33 29 29 27 24 24 19 18 17 17 16 14 12 12 12 12 10 9 9 6 3 2 2 1 2 2 1 1 1 1 1 1
868 756 713 742 670 670 747 879 829 829 640 571 543 543 518 461 461 360 294 268 268 214 200 164 118 118 53 30 42 42 56 53 22 22 nan nan nan nan nan nan nan nan nan nan nan nan nan nan nan nan nan nan nan nan nan nan nan nan nan 19 19 30 19 14 19 19 35 42 42 42 33 27 30 30 28 24 24 19 17 18 18 15 13 11 9 9 8 7 4 4 1 1 0 0 0 0 0 0 0 1 1 1 1
771 740 698 621 658 658 695 766 765 765 620 554 526 526 469 416 416 347 282 258 258 230 194 181 110 110 46 23 23 23 35 47 9 9 nan nan nan nan nan nan nan nan nan nan nan nan nan nan nan nan nan nan nan nan nan nan nan nan nan 35 35 31 23 20 28 28 38 41 37 37 29 26 27 27 27 24 24 20 17 17 17 14 11 9 8 8 7 5 2 2 0 0 0 0 0 0 0 1 2 1 1 2 3
639 648 439 435 607 607 682 749 671 671 570 571 509 509 482 401 401 333 268 246 246 221 212 175 143 143 53 17 8 8 19 18 7 7 nan nan nan nan nan nan nan nan nan nan nan nan nan nan nan nan nan nan nan nan nan nan nan nan nan 29 29 32 26 24 32 32 38 34 31 31 26 22 23 23 25 23 23 20 19 16 16 14 11 10 9 9 7 4 2 2 3 3 4 4 3 3 3 3 3 3 3 3 4
423 316 175 286 487 487 665 739 664 664 555 559 528 528 467 414 414 342 275 257 257 235 229 192 135 135 61 11 0 0 1 7 1 1 nan nan nan nan nan nan nan nan nan nan nan nan nan nan nan nan nan nan nan nan nan nan nan nan 9 29 29 33 29 30 35 35 37 33 30 30 26 22 23 23 26 27 27 22 21 15 15 14 11 9 9 9 7 5 6 6 5 4 4 4 4 5 5 4 4 3 3 4 4
97 nan 11 227 379 379 578 691 690 690 582 549 515 515 455 428 428 350 257 241 241 246 220 207 150 150 70 15 nan nan nan 14 nan nan nan nan nan nan nan nan nan nan nan nan nan nan nan nan nan nan nan nan nan nan nan nan nan nan 30 33 33 35 37 37 39 39 38 36 33 33 28 22 25 25 28 29 29 27 21 17 17 15 13 11 9 9 9 9 8 8 8 6 4 4 4 5 5 3 4 3 3 4 3
nan nan nan 217 291 291 465 604 607 607 539 540 473 473 443 413 413 359 288 248 248 254 231 221 164 164 97 9 nan nan nan nan nan nan nan nan nan nan nan nan nan nan nan nan nan nan nan nan nan nan nan nan nan nan nan nan nan nan 30 32 32 37 41 42 43 43 40 40 39 39 34 27 27 27 29 30 30 29 23 19 19 18 15 13 13 13 13 13 11 11 8 6 5 5 5 4 4 6 5 5 5 4 4
nan nan 95 167 282 282 396 490 526 526 494 496 434 434 404 373 373 345 272 278 278 260 240 211 179 179 90 nan nan nan nan nan nan nan nan nan nan nan nan nan nan nan nan nan nan nan nan nan nan nan nan nan nan nan nan nan nan 2 33 32 32 35 39 44 40 40 44 45 45 45 44 35 31 31 32 34 34 30 25 22 22 20 19 18 17 17 17 16 15 15 10 7 6 6 4 4 4 6 7 7 7 5 3
nan nan 56 161 226 226 305 384 448 448 421 452 397 397 394 363 363 309 283 286 286 292 248 222 170 170 35 nan nan nan nan nan nan nan nan nan nan nan nan nan nan nan nan nan nan nan nan nan nan nan nan nan nan nan nan nan nan 14 33 31 31 33 39 41 40 40 42 47 47 47 47 42 36 36 35 34 34 33 27 24 24 24 22 24 23 23 20 20 18 18 12 8 6 6 4 4 4 6 6 7 7 5 3
nan 4 81 133 172 172 195 273 296 296 322 351 280 280 377 371 371 267 198 220 220 244 270 247 61 61 0 nan nan nan nan nan nan nan nan nan nan nan nan nan nan nan nan nan nan nan nan nan nan nan nan nan nan nan nan nan nan 20 39 33 33 35 35 38 39 39 42 42 48 48 48 43 42 42 44 40 40 37 32 28 28 30 27 28 25 25 24 24 20 20 14 10 6 6 3 2 2 2 2 4 4 4 3
20 49 45 129 111 111 131 220 272 272 267 270 22 22 20 41 41 188 147 114 114 218 288 153 nan nan nan nan nan nan nan nan nan nan nan nan nan nan nan nan nan nan nan nan nan nan nan nan nan nan nan nan nan nan nan nan nan 19 42 38 38 36 35 37 40 40 37 40 45 45 47 44 42 42 42 43 43 41 35 30 30 27 28 27 23 23 25 25 24 24 15 8 5 5 3 1 1 3 1 2 2 6 4
101 64 110 144 107 107 91 149 240 240 134 197 9 9 6 0 0 nan nan nan nan 0 23 nan nan nan nan nan nan nan nan nan nan nan nan nan nan nan nan nan nan nan nan nan nan nan nan nan nan nan nan nan nan nan nan 0 0 15 46 51 51 42 38 40 41 41 40 43 44 44 44 44 39 39 42 40 40 38 35 32 32 31 30 29 25 25 27 26 25 25 18 9 4 4 2 1 1 1 1 1 1 4 5
117 112 125 159 157 157 103 88 147 147 27 13 28 28 12 5 5 nan nan nan nan nan nan nan nan nan nan nan nan nan nan nan nan nan nan nan nan nan nan nan nan nan nan nan nan nan nan nan nan nan nan nan nan nan nan nan nan 13 41 58 58 55 46 43 42 42 44 46 46 46 44 44 42 42 43 40 40 39 38 37 37 33 31 31 31 31 28 29 26 26 20 12 5 5 2 1 1 1 0 1 1 3 4
132 110 141 157 154 154 98 65 84 84 6 39 37 37 7 5 5 1 nan nan nan nan nan nan nan nan nan nan nan nan nan nan nan nan nan nan nan nan nan nan nan nan nan nan nan nan nan nan nan nan nan nan nan nan nan nan nan 18 45 57 57 85 64 44 44 44 46 47 47 47 47 45 44 44 42 43 43 39 38 39 39 35 32 32 31 31 33 32 28 28 22 16 8 8 3 1 1 0 1 1 1 2 3
129 125 158 172 130 130 61 19 20 20 10 35 11 11 14 7 7 3 nan nan nan nan nan nan nan nan nan nan nan nan nan nan nan nan nan nan nan nan nan nan nan nan nan nan nan nan nan nan nan nan nan nan nan nan nan nan nan 19 49 57 57 108 98 56 43 43 46 45 47 47 47 50 48 48 44 44 44 42 37 34 34 34 31 32 31 31 32 33 30 30 25 19 11 11 5 3 3 1 2 1 1 1 1
124 121 116 187 143 143 39 13 6 6 2 32 26 26 7 19 19 6 2 1 1 1 nan nan nan nan nan nan nan nan nan nan nan nan nan nan nan nan nan nan nan nan nan nan nan nan nan nan nan nan nan nan nan nan nan nan nan 6 31 44 44 115 136 112 60 60 45 46 51 51 50 53 47 47 43 43 43 41 36 34 34 30 29 29 31 31 32 31 31 31 25 20 14 14 8 5 5 2 1 0 0 0 0
135 97 111 200 155 155 49 13 6 6 1 29 14 14 6 15 15 6 3 3 3 1 nan nan nan nan nan nan nan nan nan nan nan nan nan nan nan nan nan nan nan nan nan nan nan nan nan nan nan nan nan nan nan nan nan nan nan nan 13 31 31 84 174 183 104 104 59 43 52 52 54 52 45 45 43 44 44 42 40 36 36 29 27 27 32 32 29 26 26 26 28 23 18 18 13 9 9 5 2 1 1 0 0
143 90 123 213 167 167 77 13 3 3 2 18 13 13 12 4 4 3 3 2 2 1 nan nan nan nan nan nan nan nan nan nan nan nan nan nan nan nan nan nan nan nan nan nan nan nan nan nan nan nan nan nan nan nan nan nan nan nan nan 14 14 70 164 213 178 178 101 61 49 49 59 56 45 45 37 37 37 38 39 36 36 30 26 26 29 29 28 25 29 29 28 25 21 21 18 14 14 10 6 3 3 1 1
143 118 132 183 158 158 109 15 8 8 7 11 14 14 6 2 2 3 3 2 2 0 nan nan nan nan nan nan nan nan nan nan nan nan nan nan nan nan nan nan nan nan nan nan nan nan nan nan nan nan nan nan nan nan nan nan nan nan nan nan nan 15 122 222 186 186 170 126 105 105 112 87 49 49 38 37 37 38 40 38 38 33 26 28 30 30 31 27 30 30 32 31 26 26 20 19 19 15 10 6 6 5 4
159 130 106 157 133 133 104 16 14 14 8 11 9 9 2 2 2 2 2 0 0 nan nan nan nan nan nan nan nan nan nan nan nan nan nan nan nan nan nan nan nan nan nan nan nan nan nan nan nan nan nan nan nan nan nan nan nan nan nan nan nan 1 33 170 178 178 243 286 278 278 262 218 107 107 59 52 52 42 42 40 40 37 33 32 33 33 33 31 33 33 37 38 30 30 21 21 21 17 14 11 11 9 8
179 123 118 133 112 112 67 16 10 10 9 8 3 3 0 2 2 1 nan nan nan nan nan nan nan nan nan nan nan nan nan nan nan nan nan nan nan nan nan nan nan nan nan nan nan nan nan nan nan nan nan nan nan nan nan nan nan nan nan nan nan nan 9 52 129 129 212 351 451 451 524 416 273 273 143 64 64 42 42 39 39 43 36 34 33 33 33 32 39 39 40 43 35 35 24 20 20 22 16 13 13 13 11
170 119 116 97 130 130 98 31 18 18 6 5 1 1 nan 0 0 nan nan nan nan nan nan nan nan nan nan nan nan nan nan nan nan nan nan nan nan nan nan nan nan nan nan nan nan nan nan nan nan nan nan nan nan nan nan nan nan nan nan nan nan nan 0 16 62 62 145 308 497 497 504 448 394 394 295 146 146 56 42 43 43 44 44 35 35 35 37 38 38 38 45 51 38 38 26 24 24 25 19 15 15 13 11
189 137 101 98 115 115 97 42 20 20 7 3 nan nan nan nan nan nan nan nan nan nan nan nan nan nan nan nan nan nan nan nan nan nan nan nan nan nan nan nan nan nan nan nan nan nan nan nan nan nan nan nan nan nan nan nan nan nan nan nan nan nan nan 1 13 13 30 219 387 387 430 371 318 318 297 225 225 86 45 45 45 46 46 40 39 39 42 41 41 41 48 52 41 41 29 25 25 28 21 13 13 11 9
197 120 118 99 82 82 112 62 23 23 5 1 nan nan nan nan nan nan nan nan nan nan nan nan nan nan nan nan nan nan nan nan nan nan nan nan nan nan nan nan nan nan nan nan nan nan nan nan nan nan nan nan nan nan nan nan nan nan nan nan nan nan nan nan 0 0 5 56 289 289 322 224 135 135 226 238 238 114 51 43 43 41 43 44 43 43 45 47 44 44 49 51 45 45 31 25 25 29 23 16 16 10 8
204 121 116 115 82 82 128 84 31 31 7 0 nan nan nan nan nan nan nan nan nan nan nan nan nan nan nan nan nan nan nan nan nan nan nan nan nan nan nan nan nan nan nan nan nan nan nan nan nan nan nan nan nan nan nan nan nan nan nan nan nan nan nan nan nan nan nan 11 158 158 310 165 86 86 98 147 147 149 67 42 42 41 40 39 44 44 43 42 41 41 47 49 52 52 37 28 28 30 28 20 20 14 11
219 159 88 120 100 100 130 113 39 39 12 0 nan nan nan nan nan nan nan nan nan nan nan nan nan nan nan nan nan nan nan nan nan nan nan nan nan nan nan nan nan nan nan nan nan nan nan nan nan nan nan nan nan nan nan nan nan nan nan nan nan nan nan nan nan nan nan nan 15 15 223 200 61 61 70 134 134 140 82 52 52 40 35 40 43 43 45 45 41 41 47 47 53 53 44 33 33 31 30 25 25 19 14
149 230 124 113 121 121 132 124 52 52 12 0 nan nan nan nan nan nan nan nan nan nan nan nan nan nan nan nan nan nan nan nan nan nan nan nan nan nan nan nan nan nan nan nan nan nan nan nan nan nan nan nan nan nan nan nan nan nan nan nan nan nan nan nan nan nan nan nan nan nan 55 216 122 122 96 125 125 161 115 68 68 40 34 38 40 40 41 42 41 41 45 46 58 58 51 39 39 35 33 31 31 23 16
96 161 102 149 124 124 116 107 65 65 10 1 nan nan nan nan nan nan nan nan nan nan nan nan nan nan nan nan nan nan nan nan nan nan nan nan nan nan nan nan nan nan nan nan nan nan nan nan nan nan nan nan nan nan nan nan nan nan nan nan nan nan nan nan nan nan nan nan nan nan 1 75 182 182 158 143 143 181 161 114 114 54 40 41 46 46 39 37 39 39 41 43 58 58 51 43 43 37 39 34 34 29 21
126 104 150 93 112 112 105 81 55 55 19 1 nan nan nan nan nan nan nan nan nan nan nan nan nan nan nan nan nan nan nan nan nan nan nan nan nan nan nan nan nan nan nan nan nan nan nan nan nan nan nan nan nan nan nan nan nan nan nan nan nan nan nan nan nan nan nan nan nan nan nan 2 63 63 236 249 249 230 179 132 132 98 63 68 66 66 47 39 41 41 41 45 53 53 55 43 43 43 46 43 43 36 30
171 154 160 67 124 124 83 52 25 25 17 0 nan nan nan nan nan nan nan nan nan nan nan nan nan nan nan nan nan nan nan nan nan nan nan nan nan nan nan nan nan nan nan nan nan nan nan nan nan nan nan nan nan nan nan nan nan nan nan nan nan nan nan nan nan nan nan nan nan nan nan nan 3 3 118 299 299 312 260 209 209 136 107 91 85 85 77 49 43 43 46 62 64 64 58 51 51 51 56 63 63 46 39
180 146 121 95 106 106 72 22 2 2 17 nan nan nan nan nan nan nan nan nan nan nan nan nan nan nan nan nan nan nan nan nan nan nan nan nan nan nan nan nan nan nan nan nan nan nan nan nan nan nan nan nan nan nan nan nan nan nan nan nan nan nan nan nan nan nan nan nan nan nan nan nan nan nan 7 201 201 332 344 322 322 212 142 116 113 113 97 81 64 64 68 89 86 86 69 56 56 56 61 80 80 81 53
208 156 123 110 85 85 38 3 nan nan 12 nan nan nan nan nan nan nan nan nan nan nan nan nan nan nan nan nan nan nan nan nan nan nan nan nan nan nan nan nan nan nan nan nan nan nan nan nan nan nan nan nan nan nan nan nan nan nan nan nan nan nan nan nan nan nan nan nan nan nan nan nan nan nan nan 15 15 201 300 280 280 175 211 193 123 123 119 110 94 94 88 101 102 102 90 83 83 74 74 83 83 91 71
86 132 116 80 29 29 3 nan nan nan nan nan nan nan nan nan nan nan nan nan nan nan nan nan nan nan nan nan nan nan nan nan nan nan nan nan nan nan nan nan nan nan nan nan nan nan nan nan nan nan nan nan nan nan nan nan nan nan nan nan nan nan nan nan nan nan nan nan nan nan nan nan nan nan nan nan nan nan nan nan nan nan 34 169 236 236 183 172 153 153 145 135 136 136 136 137 137 131 113 112 112 108 84
34 53 73 43 12 12 nan nan nan nan nan nan nan nan nan nan nan nan nan nan nan nan nan nan nan nan nan nan nan nan nan nan nan nan nan nan nan nan nan nan nan nan nan nan nan nan nan nan nan nan nan nan nan nan nan nan nan nan nan nan nan nan nan nan nan nan nan nan nan nan nan nan nan nan nan nan nan nan nan nan nan nan 17 126 284 284 220 203 190 190 179 157 160 160 157 159 159 151 143 135 135 134 106
12 18 42 37 6 6 nan nan nan nan nan nan nan nan nan nan nan nan nan nan nan nan nan nan nan nan nan nan nan nan nan nan nan nan nan nan nan nan nan nan nan nan nan nan nan nan nan nan nan nan nan nan nan nan nan nan nan nan nan nan nan nan nan nan nan nan nan nan nan nan nan nan nan nan nan nan nan nan nan nan nan nan 7 89 244 244 260 255 256 256 233 191 183 183 181 171 171 183 163 154 154 149 129
5 2 10 22 4 4 nan nan nan nan nan nan nan nan nan nan nan nan nan nan nan nan nan nan nan nan nan nan nan nan nan nan nan nan nan nan nan nan nan nan nan nan nan nan nan nan nan nan nan nan nan nan nan nan nan nan nan nan nan nan nan nan nan nan nan nan nan nan nan nan nan nan nan nan nan nan nan nan nan nan nan nan nan 42 147 147 254 226 290 290 289 243 216 216 216 205 205 207 194 175 175 154 140
nan 1 4 13 6 6 nan nan nan nan nan nan nan nan nan nan nan nan nan nan nan nan nan nan nan nan nan nan nan nan nan nan nan nan nan nan nan nan nan nan nan nan nan nan nan nan nan nan nan nan nan nan nan nan nan nan nan nan nan nan nan nan nan nan nan nan nan nan nan nan nan nan nan nan nan nan nan nan nan nan nan nan nan 0 63 63 136 139 220 220 350 298 255 255 254 241 241 231 219 198 198 164 162
nan nan 1 3 nan nan nan nan nan nan nan nan nan nan nan nan nan nan nan nan nan nan nan nan nan nan nan nan nan nan nan nan nan nan nan nan nan nan nan nan nan nan nan nan nan nan nan nan nan nan nan nan nan nan nan nan nan nan nan nan nan nan nan nan nan nan nan nan nan nan nan nan nan nan nan nan nan nan nan nan nan nan nan nan nan nan 36 19 115 115 315 391 307 307 285 266 266 257 258 247 247 198 198
nan nan nan nan nan nan nan nan nan nan nan nan nan nan nan nan nan nan nan nan nan nan nan nan nan nan nan nan nan nan nan nan nan nan nan nan nan nan nan nan nan nan nan nan nan nan nan nan nan nan nan nan nan nan nan nan nan nan nan nan nan nan nan nan nan nan nan nan nan nan nan nan nan nan nan nan nan nan nan nan nan nan nan nan nan nan nan nan 37 37 186 416 375 375 319 298 298 283 285 272 272 233 221
nan nan nan nan 1 1 nan nan nan nan nan nan nan nan nan nan nan nan nan nan nan nan nan nan nan nan nan nan nan nan nan nan nan nan nan nan nan nan nan nan nan nan nan nan nan nan nan nan nan nan nan nan nan nan nan nan nan nan nan nan nan nan nan nan nan nan nan nan nan nan nan nan nan nan nan nan nan nan nan nan nan nan nan nan nan nan nan nan 4 4 77 278 399 399 357 314 314 313 313 284 284 242 228
nan nan nan 0 9 9 nan nan nan nan nan nan nan nan nan nan nan nan nan nan nan nan nan nan nan nan nan nan nan nan nan nan nan nan nan nan nan nan nan nan nan nan nan nan nan nan nan nan nan nan nan nan nan nan nan nan nan nan nan nan nan nan nan nan nan nan nan nan nan nan nan nan nan nan nan nan nan nan nan nan nan nan nan nan nan nan nan nan nan nan 45 171 291 291 307 348 348 347 329 314 314 282 250
3 0 nan nan 14 14 nan nan nan nan nan nan nan nan nan nan nan nan nan nan nan nan nan nan nan nan nan nan nan nan nan nan nan nan nan nan nan nan nan nan nan nan nan nan nan nan nan nan nan nan nan nan nan nan nan nan nan nan nan nan nan nan nan nan nan nan nan nan nan nan nan nan nan nan nan nan nan nan nan nan nan nan nan nan nan nan nan nan nan nan nan 73 170 170 185 289 289 364 344 330 330 297 261
6 1 nan nan 0 0 nan nan 17 17 nan nan nan nan nan nan nan nan nan nan nan nan nan nan nan nan nan nan nan nan nan nan nan nan nan nan nan nan nan nan nan nan nan nan nan nan nan nan nan nan nan nan nan nan nan nan nan nan nan nan nan nan nan nan nan nan nan nan nan nan nan nan nan nan nan nan nan nan nan nan nan nan nan nan nan nan nan nan nan nan nan nan 77 77 117 219 219 360 341 297 297 295 274
7 2 nan nan nan nan nan nan 5 5 4 nan nan nan nan nan nan nan nan nan nan nan nan nan nan nan nan nan nan nan nan nan nan nan nan nan nan nan nan nan nan nan nan nan nan nan nan nan nan nan nan nan nan nan nan nan nan nan nan nan nan nan nan nan nan nan nan nan nan nan nan nan nan nan nan nan nan nan nan nan nan nan nan nan nan nan nan nan nan nan nan nan nan nan nan 177 177 287 337 276 276 276 271
6 1 nan nan nan nan nan nan 1 1 28 nan nan nan nan nan nan nan nan nan nan nan nan nan nan nan nan nan nan nan nan nan nan nan nan nan nan nan nan nan nan nan nan nan nan nan nan nan nan nan nan nan nan nan nan nan nan nan nan nan nan nan nan nan nan nan nan nan nan nan nan nan nan nan nan nan nan nan nan nan nan nan nan nan nan nan nan nan nan nan nan nan nan nan nan 91 91 146 283 269 269 237 266
3 3 nan nan 0 0 1 nan nan nan 5 nan nan nan nan nan nan nan nan nan nan nan nan nan nan nan nan nan nan nan nan nan nan nan nan nan nan nan nan nan nan nan nan nan nan nan nan nan nan nan nan nan nan nan nan nan nan nan nan nan nan nan nan nan nan nan nan nan nan nan nan nan nan nan nan nan nan nan nan nan nan nan nan nan nan nan nan nan nan nan nan nan nan nan nan nan nan 75 244 245 245 213 242
0 3 0 nan nan nan 4 0 nan nan 0 nan nan nan nan nan nan nan nan nan nan nan nan nan nan nan nan nan nan nan nan nan nan nan nan nan nan nan nan nan nan nan nan nan nan nan nan nan nan nan nan nan nan nan nan nan nan nan nan nan nan nan nan nan nan nan nan nan nan nan nan nan nan nan nan nan nan nan nan nan nan nan nan nan nan nan nan nan nan nan nan nan nan nan nan nan nan 44 177 234 234 187 216
1 6 3 nan nan nan 0 1 nan nan nan nan nan nan nan nan nan nan nan nan nan nan nan nan nan nan nan nan nan nan nan nan nan nan nan nan nan nan nan nan nan nan nan nan nan nan nan nan nan nan nan nan nan nan nan nan nan nan nan nan nan nan nan nan nan nan nan nan nan nan nan nan nan nan nan nan nan nan nan nan nan nan nan nan nan nan nan nan nan nan nan nan nan nan nan nan nan 9 130 179 179 162 173
1 9 7 0 nan nan 0 nan 0 0 nan nan nan nan 1 nan nan nan nan nan nan nan nan nan nan nan nan nan nan nan nan nan nan nan nan nan nan nan nan nan nan nan nan nan nan nan nan nan nan nan nan nan nan nan nan nan nan nan nan nan nan nan nan nan nan nan nan nan nan nan nan nan nan nan nan nan nan nan nan nan nan nan nan nan nan nan nan nan nan nan nan nan nan nan nan nan nan nan 90 146 146 114 135
4 5 0 nan nan nan 0 nan nan nan 0 nan 0 0 0 nan nan nan nan nan nan nan nan nan nan nan nan nan nan nan nan nan nan nan nan nan nan nan nan nan nan nan nan nan nan nan nan nan nan nan nan nan nan nan nan nan nan nan nan nan nan nan nan nan nan nan nan nan nan nan nan nan nan nan nan nan nan nan nan nan nan nan nan nan nan nan nan nan nan nan nan nan nan nan nan nan nan nan 43 116 116 88 105
7 4 0 nan nan nan nan nan nan nan nan nan 1 1 nan nan nan nan nan nan nan nan nan nan nan nan nan nan nan nan nan nan nan nan nan nan nan nan nan nan nan nan nan nan nan nan nan nan nan nan nan nan nan nan nan nan nan nan nan nan nan nan nan nan nan nan nan nan nan nan nan nan nan nan nan nan nan nan nan nan nan nan nan nan nan nan nan nan nan nan nan nan nan nan nan nan nan nan 13 77 77 65 92